Location: Anjeux
(47.8815°N, 6.2076°E)
Time: 15:36:51
(UTC+00:00)

USA 238 - Pass Details

Date: 05 March 2021
Orbit: 994 x 1218 km, 63.4° (Epoch: 11 April)

Event Time Altitude Azimuth Distance (km) Brightness Sun altitude
Exits shadow 04:12:20 - 318° (NW) 3,911 6.4 -20.1°
Reaches altitude 10° 04:14:53 10° 319° (NW) 3,010 5.8 -19.7°
Maximum altitude 04:22:08 88° 232° (SW) 1,175 3.8 -18.5°
Drops below altitude 10° 04:29:42 10° 143° (SE) 3,134 6.5 -17.3°
Sets 04:32:29 0° 143° (SE) 4,110 7.1 -16.8°
